Sparta, WI

9:08 AM CDT on September 25, 2016 (GMT -0500)
Sparta-Fort McCoy

Weather History for KCMY - October, 2013

Change the Weather History Date:

Tuesday, October 1, 2013

  Actual Average Record
Temperature  
Mean Temperature 60 °F -  
Max Temperature 78 °F 67 °F 84 °F (1971)
Min Temperature 42 °F 41 °F 27 °F (1974)
Degree Days  
Heating Degree Days 5    
Growing Degree Days 10 (Base 50)    
Moisture  
Dew Point 50 °F    
Average Humidity 64    
Maximum Humidity 98    
Minimum Humidity 27    
Precipitation  
Precipitation 0.00 in - - ()
Sea Level Pressure  
Sea Level Pressure 29.85 in    
Wind  
Wind Speed 5 mph (SW)    
Max Wind Speed 14 mph    
Max Gust Speed 20 mph    
Visibility 10 miles    
Events      
Averages and records for this station are not official NWS values.
T = Trace of Precipitation, MM = Missing Value Source: NWS Daily Summary

Daily Weather History Graph

Daily Weather History Graph

Search for Another Location

Airport or City:

Trip Planner

Search our weather history database for the weather conditions in past years. The results will help you decide how hot, cold, wet, or windy it might be!

Date:

Astronomy

Oct. 01, 2013 Rise Set
Actual Time 7:00 AM CDT 6:43 PM CDT
Civil Twilight 6:32 AM CDT 7:12 PM CDT
Nautical Twilight 5:58 AM CDT 7:45 PM CDT
Astronomical Twilight 5:24 AM CDT 8:19 PM CDT
Moon 3:29 AM CDT (10/1) 4:51 PM CDT (10/1)
Length of Visible Light 12h 39m
Length of Day
11h 42m
Waning Crescent, 12% of the Moon is Illuminated
Oct 1
Waning Crescent
Oct 4
New
Oct 11
First Quarter
Oct 18
Full
Oct 26
Last Quarter

Hourly Weather History & Observations

Time (CDT) Temp. Dew Point Humidity Pressure Visibility Wind Dir Wind Speed Gust Speed Precip Events Conditions
12:15 AM 61.9 °F 48.9 °F 62% 29.78 in 10.0 mi South 4.6 mph - N/A   Clear
12:35 AM 62.1 °F 49.3 °F 63% 29.78 in 10.0 mi South 4.6 mph - N/A   Clear
12:55 AM 61.5 °F 50.0 °F 66% 29.78 in 10.0 mi Calm Calm - N/A   Clear
1:15 AM 60.8 °F 50.7 °F 69% 29.78 in 10.0 mi South 6.9 mph - N/A   Clear
1:35 AM 60.8 °F 50.9 °F 70% 29.78 in 10.0 mi South 5.8 mph - N/A   Clear
1:55 AM 59.4 °F 50.9 °F 74% 29.78 in 10.0 mi South 6.9 mph - N/A   Clear
2:15 AM 59.0 °F 51.3 °F 75% 29.78 in 10.0 mi South 3.5 mph - N/A   Clear
2:35 AM 59.0 °F 51.6 °F 76% 29.78 in 10.0 mi South 3.5 mph - N/A   Clear
2:55 AM 60.3 °F 52.7 °F 76% 29.77 in 10.0 mi SSW 4.6 mph - N/A   Clear
3:15 AM 60.6 °F 53.1 °F 76% 29.77 in 10.0 mi South 5.8 mph - N/A   Clear
3:35 AM 60.6 °F 53.6 °F 78% 29.77 in 10.0 mi South 6.9 mph - N/A   Clear
3:55 AM 60.4 °F 54.0 °F 79% 29.76 in 10.0 mi SSW 3.5 mph - N/A   Clear
4:15 AM 60.4 °F 54.5 °F 81% 29.76 in 10.0 mi SSW 5.8 mph - N/A   Clear
4:35 AM 60.3 °F 54.5 °F 81% 29.76 in 10.0 mi SSW 4.6 mph - N/A   Clear
4:55 AM 60.4 °F 54.9 °F 82% 29.77 in 10.0 mi SSW 4.6 mph - N/A   Clear
5:15 AM 61.0 °F 55.2 °F 81% 29.78 in 10.0 mi Calm Calm - N/A   Clear
5:35 AM 61.3 °F 54.9 °F 79% 29.77 in 10.0 mi South 6.9 mph - N/A   Clear
5:55 AM 61.7 °F 54.5 °F 77% 29.77 in 10.0 mi South 5.8 mph - N/A   Clear
6:15 AM 60.8 °F 54.7 °F 80% 29.76 in 10.0 mi South 6.9 mph - N/A   Clear
6:35 AM 61.2 °F 54.7 °F 79% 29.77 in 10.0 mi SW 4.6 mph - N/A   Clear
6:55 AM 60.8 °F 54.5 °F 80% 29.77 in 10.0 mi SSW 4.6 mph - N/A   Clear
7:15 AM 60.6 °F 54.7 °F 81% 29.77 in 10.0 mi South 3.5 mph - N/A   Clear
7:35 AM 61.0 °F 54.5 °F 79% 29.78 in 10.0 mi SW 3.5 mph - N/A   Clear
7:55 AM 62.1 °F 54.9 °F 77% 29.78 in 10.0 mi SSW 5.8 mph - N/A   Clear
8:15 AM 63.1 °F 54.9 °F 74% 29.78 in 10.0 mi SSW 5.8 mph - N/A   Clear
8:35 AM 64.4 °F 54.9 °F 71% 29.79 in 10.0 mi SSW 5.8 mph - N/A   Clear
8:55 AM 65.7 °F 55.0 °F 69% 29.79 in 10.0 mi SSW 8.1 mph - N/A   Clear
9:15 AM 66.7 °F 54.5 °F 65% 29.79 in 10.0 mi WSW 8.1 mph - N/A   Clear
9:35 AM 68.5 °F 54.5 °F 61% 29.80 in 10.0 mi SW 9.2 mph - N/A   Clear
9:55 AM 68.9 °F 53.8 °F 58% 29.80 in 10.0 mi WSW 13.8 mph - N/A   Clear
10:15 AM 69.1 °F 53.2 °F 57% 29.82 in 10.0 mi WSW 10.4 mph 19.6 mph N/A   Clear
10:35 AM 70.9 °F 53.8 °F 55% 29.82 in 10.0 mi SW 9.2 mph 19.6 mph N/A   Clear
10:55 AM 70.0 °F 53.4 °F 56% 29.82 in 10.0 mi SW 9.2 mph 16.1 mph N/A   Clear
11:15 AM 70.0 °F 54.0 °F 57% 29.83 in 10.0 mi WSW 8.1 mph - N/A   Clear
11:35 AM 71.4 °F 53.6 °F 53% 29.84 in 10.0 mi West 10.4 mph 17.3 mph N/A   Clear
11:55 AM 72.7 °F 52.9 °F 50% 29.83 in 10.0 mi SW 8.1 mph - N/A   Clear
12:15 PM 73.6 °F 53.2 °F 49% 29.84 in 10.0 mi West 10.4 mph 17.3 mph N/A   Clear
12:35 PM 74.1 °F 53.2 °F 48% 29.85 in 10.0 mi WSW 9.2 mph 16.1 mph N/A   Clear
12:55 PM 74.8 °F 53.4 °F 47% 29.85 in 10.0 mi WSW 10.4 mph 17.3 mph N/A   Clear
1:15 PM 75.7 °F 53.6 °F 46% 29.85 in 10.0 mi West 12.7 mph 16.1 mph N/A   Clear
1:35 PM 75.2 °F 52.7 °F 45% 29.85 in 10.0 mi WSW 9.2 mph - N/A   Clear
1:55 PM 75.7 °F 52.0 °F 43% 29.85 in 10.0 mi West 10.4 mph - N/A   Clear
2:15 PM 76.1 °F 52.2 °F 43% 29.85 in 10.0 mi WSW 5.8 mph 17.3 mph N/A   Clear
2:35 PM 77.0 °F 50.4 °F 39% 29.85 in 10.0 mi West 10.4 mph 18.4 mph N/A   Clear
2:55 PM 76.8 °F 49.8 °F 39% 29.85 in 10.0 mi SW 9.2 mph 16.1 mph N/A   Clear
3:15 PM 77.9 °F 46.9 °F 33% 29.86 in 10.0 mi West 9.2 mph - N/A   Clear
3:35 PM 77.7 °F 43.3 °F 29% 29.87 in 10.0 mi West 10.4 mph - N/A   Clear
3:55 PM 76.8 °F 42.8 °F 30% 29.87 in 10.0 mi West 9.2 mph 17.3 mph N/A   Clear
4:15 PM 77.0 °F 41.0 °F 28% 29.87 in 10.0 mi WNW 12.7 mph - N/A   Clear
4:35 PM 76.6 °F 40.3 °F 27% 29.88 in 10.0 mi West 12.7 mph 17.3 mph N/A   Clear
4:55 PM 76.3 °F 43.0 °F 30% 29.88 in 10.0 mi West 9.2 mph 17.3 mph N/A   Clear
5:15 PM 76.1 °F 43.0 °F 31% 29.89 in 10.0 mi West 9.2 mph - N/A   Clear
5:35 PM 75.4 °F 43.0 °F 31% 29.90 in 10.0 mi West 8.1 mph - N/A   Clear
5:55 PM 74.3 °F 44.6 °F 35% 29.90 in 10.0 mi West 4.6 mph - N/A   Clear
6:15 PM 72.5 °F 46.4 °F 39% 29.91 in 10.0 mi West 4.6 mph - N/A   Clear
6:35 PM 69.6 °F 46.9 °F 44% 29.91 in 10.0 mi West 3.5 mph - N/A   Clear
6:55 PM 67.1 °F 46.8 °F 48% 29.92 in 10.0 mi West 3.5 mph - N/A   Clear
7:15 PM 63.7 °F 48.2 °F 57% 29.92 in 10.0 mi Calm Calm - N/A   Clear
7:35 PM 59.9 °F 46.2 °F 61% 29.93 in 10.0 mi Calm Calm - N/A   Clear
7:55 PM 55.6 °F 46.8 °F 72% 29.93 in 10.0 mi Calm Calm - N/A   Clear
8:15 PM 55.0 °F 46.4 °F 73% 29.94 in 10.0 mi Calm Calm - N/A   Clear
8:35 PM 52.0 °F 46.0 °F 80% 29.95 in 10.0 mi Calm Calm - N/A   Clear
8:55 PM 52.2 °F 47.3 °F 83% 29.95 in 10.0 mi Calm Calm - N/A   Clear
9:15 PM 50.5 °F 47.1 °F 88% 29.96 in 10.0 mi Calm Calm - N/A   Clear
9:35 PM 48.9 °F 46.9 °F 93% 29.96 in 10.0 mi Calm Calm - N/A   Clear
9:55 PM 47.1 °F 45.0 °F 92% 29.97 in 10.0 mi Calm Calm - N/A   Clear
10:15 PM 46.9 °F 44.8 °F 92% 29.98 in 10.0 mi Calm Calm - N/A   Clear
10:35 PM 45.9 °F 44.6 °F 95% 29.98 in 10.0 mi Calm Calm - N/A   Clear
10:55 PM 45.0 °F 44.4 °F 98% 29.98 in 10.0 mi Calm Calm - N/A   Clear
11:15 PM 43.2 °F 42.6 °F 98% 29.99 in 10.0 mi Calm Calm - N/A   Clear
11:35 PM 43.3 °F 42.4 °F 97% 29.99 in 10.0 mi Calm Calm - N/A   Clear
11:55 PM 42.6 °F 41.7 °F 97% 30.00 in 10.0 mi Calm Calm - N/A   Clear